EW7579 Weather Reports


Display with metric or nautical units.
time (UTC)temp
F
wind
direction
speed
MPH
gust
MPH
rain 1hr
in
rain 24hr
in
rain mn
in
humidity
%
barometer
mb
20191216000211 25 267 0.0 1.0 0.00 0.00 0.00 91 1014.1
20191215234751 25 286 0.0 0.0 0.00 0.00 0.00 91 1013.8
20191215233129 25 286 0.0 1.0 0.00 0.00 0.00 90 1013.6
20191215231719 25 314 0.0 3.0 0.00 0.00 0.00 89 1013.4
20191215230159 25 262 0.0 1.0 0.00 0.00 0.00 89 1013.2
20191215224733 25 284 0.0 1.0 0.00 0.00 0.00 88 1013.0
20191215223214 26 287 0.0 1.0 0.00 0.00 0.00 87 1012.7
20191215221637 27 315 0.0 2.0 0.00 0.00 0.00 86 1012.5
20191215220142 27 323 0.0 2.0 0.00 0.00 0.00 86 1012.3
20191215214656 27 359 0.0 1.0 0.00 0.00 0.00 86 1012.2
20191215213107 28 297 0.0 2.0 0.00 0.00 0.00 85 1012.0
20191215211614 28 299 0.0 3.0 0.00 0.00 0.00 84 1011.8
20191215210123 28 308 0.0 4.0 0.00 0.00 0.00 84 1011.6
20191215204609 28 296 0.0 3.0 0.00 0.00 0.00 83 1011.6
20191215203133 28 299 0.0 3.0 0.00 0.00 0.00 83 1011.6
20191215201618 28 270 0.0 3.0 0.00 0.00 0.00 82 1011.5
20191215200038 27 317 1.0 4.0 0.00 0.00 0.00 83 1011.6
20191215194553 27 303 0.0 5.0 0.00 0.00 0.00 84 1011.7
20191215193136 27 294 1.0 4.0 0.00 0.00 0.00 84 1011.6
20191215190132 27 300 1.0 6.0 0.00 0.00 0.00 83 1011.7
20191215184601 27 307 1.0 2.0 0.00 0.00 0.00 86 1011.9
20191215183048 27 308 0.0 2.0 0.00 0.00 0.00 85 1012.2
20191215181611 26 306 0.0 2.0 0.00 0.00 0.00 86 1012.4
20191215180044 27 294 0.0 1.0 0.00 0.00 0.00 85 1012.5
20191215174540 26 252 0.0 3.0 0.00 0.00 0.00 87 1012.6
20191215173138 26 237 0.0 2.0 0.00 0.00 0.00 88 1012.8
20191215171556 25 271 0.0 1.0 0.00 0.00 0.00 88 1012.8
20191215170059 24 232 0.0 2.0 0.00 0.00 0.00 88 1012.7
20191215164539 23 285 0.0 0.0 0.00 0.00 0.00 90 1012.8
20191215163030 23 252 0.0 1.0 0.00 0.00 0.00 90 1012.6
20191215161513 22 229 0.0 1.0 0.00 0.00 0.00 90 1012.5
20191215160002 22 159 0.0 0.0 0.00 0.00 0.00 92 1012.4
20191215154840 21 154 0.0 1.0 0.00 0.00 0.00 92 1012.2
20191215153234 21 182 0.0 1.0 0.00 0.00 0.00 93 1012.0
20191215151826 21 179 0.0 1.0 0.00 0.00 0.00 93 1011.9
20191215150130 20 175 0.0 0.0 0.00 0.00 0.00 93 1011.9
20191215144638 20 161 0.0 1.0 0.00 0.00 0.00 93 1011.6
20191215143224 19 158 0.0 1.0 0.00 0.00 0.00 93 1011.4
20191215141637 19 207 0.0 1.0 0.00 0.00 0.00 93 1011.4
20191215140307 19 166 0.0 1.0 0.00 0.00 0.00 93 1011.3
20191215134644 19 152 0.0 1.0 0.00 0.00 0.00 93 1011.2
20191215133240 19 163 0.0 1.0 0.00 0.00 0.00 93 1011.0
20191215131606 19 157 0.0 1.0 0.00 0.00 0.00 93 1011.2
20191215130213 19 165 0.0 0.0 0.00 0.00 0.00 93 1010.9
20191215124701 19 159 0.0 0.0 0.00 0.00 0.00 93 1011.0
20191215123239 19 92 0.0 1.0 0.00 0.00 0.00 93 1010.8
20191215121603 19 128 0.0 1.0 0.00 0.00 0.00 93 1010.5
20191215120301 19 155 0.0 2.0 0.00 0.00 0.00 93 1010.5
20191215114710 19 125 0.0 2.0 0.00 0.00 0.00 93 1010.4
20191215113056 19 147 0.0 0.0 0.00 0.00 0.00 93 1010.5
20191215111620 19 165 0.0 2.0 0.00 0.00 0.00 93 1010.3
20191215110127 19 159 0.0 2.0 0.00 0.00 0.00 93 1010.3
20191215104638 19 100 0.0 3.0 0.00 0.00 0.00 93 1010.4
20191215103148 19 169 0.0 2.0 0.00 0.00 0.00 93 1010.4
20191215101556 19 161 0.0 2.0 0.00 0.00 0.00 93 1010.4
20191215100104 19 204 0.0 2.0 0.00 0.00 0.00 93 1010.5
20191215094554 19 82 0.0 3.0 0.00 0.00 0.00 93 1010.4
20191215093135 19 168 0.0 5.0 0.00 0.00 0.00 92 1010.4
20191215091536 19 140 0.0 5.0 0.00 0.00 0.00 92 1010.3
20191215090027 19 160 0.0 4.0 0.00 0.00 0.00 92 1010.5
20191215084545 19 173 0.0 1.0 0.00 0.00 0.00 93 1010.6
20191215083044 19 156 0.0 2.0 0.00 0.00 0.00 93 1010.4
20191215081606 19 96 0.0 2.0 0.00 0.00 0.00 93 1010.5
20191215080029 19 126 0.0 3.0 0.00 0.00 0.00 93 1010.4
20191215074542 19 161 0.0 3.0 0.00 0.00 0.00 93 1010.6
20191215073036 19 152 0.0 4.0 0.00 0.00 0.00 93 1010.4
20191215071541 19 158 0.0 1.0 0.00 0.00 0.00 93 1010.6
20191215070033 19 182 0.0 1.0 0.00 0.00 0.00 93 1010.5
20191215064519 19 158 0.0 2.0 0.00 0.00 0.00 93 1010.4
20191215063042 19 113 0.0 3.0 0.00 0.00 0.00 93 1010.5
20191215061514 19 142 0.0 2.0 0.00 0.00 0.00 93 1010.6
20191215060011 19 162 0.0 3.0 0.00 0.00 0.00 93 1010.7
20191215054520 20 107 0.0 1.0 0.00 0.00 0.00 93 1010.7
20191215053021 20 153 0.0 1.0 0.00 0.00 0.00 93 1010.8
20191215051517 20 95 0.0 3.0 0.00 0.00 0.00 93 1010.7
20191215050005 20 141 0.0 2.0 0.00 0.00 0.00 93 1010.5
20191215044512 20 158 0.0 2.0 0.00 0.00 0.00 93 1010.4
20191215043003 20 119 0.0 5.0 0.00 0.00 0.00 93 1010.4
20191215041502 20 109 0.0 2.0 0.00 0.00 0.00 93 1010.5
20191215040020 20 123 0.0 1.0 0.00 0.00 0.00 93 1010.6
20191215034511 20 175 0.0 3.0 0.00 0.00 0.00 93 1010.7
20191215033253 20 95 0.0 2.0 0.00 0.00 0.00 93 1010.6
20191215031758 20 175 0.0 3.0 0.00 0.00 0.00 93 1010.6
20191215030213 20 98 0.0 2.0 0.00 0.00 0.00 93 1010.3
20191215024655 20 125 0.0 4.0 0.00 0.00 0.00 92 1010.4
20191215023342 20 89 0.0 4.0 0.00 0.00 0.00 93 1010.6
20191215021749 21 66 1.0 4.0 0.00 0.00 0.00 93 1010.7
20191215020137 21 117 0.0 3.0 0.00 0.00 0.00 93 1010.7
20191215014707 21 102 0.0 3.0 0.00 0.00 0.00 93 1010.6
20191215013223 21 104 2.0 5.0 0.00 0.00 0.00 93 1010.8
20191215011756 21 103 0.0 3.0 0.00 0.00 0.00 93 1010.8
20191215010206 21 86 0.0 3.0 0.00 0.00 0.00 93 1010.9
20191215004813 21 131 0.0 4.0 0.00 0.00 0.00 93 1010.9
20191215003250 21 154 0.0 4.0 0.00 0.00 0.00 93 1010.9
20191215001817 21 106 0.0 4.0 0.00 0.00 0.00 93 1010.8